Goodland, KS

8:47 AM MST on January 24, 2017 (GMT -0700)
Renner-Goodland Municipal

Weather History for KGLD - August, 2013

Change the Weather History Date:

Friday, August 23, 2013

  Actual Average Record
Temperature  
Mean Temperature 78 °F 73 °F  
Max Temperature 91 °F 87 °F 107 °F (1943)
Min Temperature 65 °F 59 °F 38 °F (1964)
Degree Days  
Heating Degree Days 0 0  
Month to date heating degree days 0 0  
Since 1 June heating degree days 38 41  
Since 1 July heating degree days 7 4  
Cooling Degree Days 13 8  
Month to date cooling degree days 201 219  
Year to date cooling degree days 871 773  
Since 1 June cooling degree days 782 732  
Growing Degree Days 27 (Base 50)    
Moisture  
Dew Point 61 °F    
Average Humidity 67    
Maximum Humidity 100    
Minimum Humidity 34    
Precipitation  
Precipitation T in 0.07 in 1.25 in (1965)
Month to date precipitation 0.79 2.16  
Year to date precipitation 8.64 15.36  
Snow  
Snow 0.00 in 0.00 in - ()
Month to date snowfall 0.0 0.0  
Since 1 June snowfall 0.0 0.0  
Since 1 July snowfall 0.0 0.0  
Snow Depth 0.00 in    
Sea Level Pressure  
Sea Level Pressure 29.93 in    
Wind  
Wind Speed 9 mph (SE)    
Max Wind Speed 20 mph    
Max Gust Speed 26 mph    
Visibility 8 miles    
Events      
T = Trace of Precipitation, MM = Missing Value Source: NWS Daily Summary

Daily Weather History Graph

Daily Weather History Graph

Search for Another Location

Airport or City:

Trip Planner

Search our weather history database for the weather conditions in past years. The results will help you decide how hot, cold, wet, or windy it might be!

Date:

Astronomy

Aug. 23, 2013 Rise Set
Actual Time 6:07 AM MDT 7:30 PM MDT
Civil Twilight 5:39 AM MDT 7:58 PM MDT
Nautical Twilight 5:05 AM MDT 8:32 PM MDT
Astronomical Twilight 4:29 AM MDT 9:07 PM MDT
Moon 8:52 PM MDT (8/23) 9:03 AM MDT (8/23)
Length of Visible Light 14h 19m
Length of Day
13h 23m
Waning Gibbous, 91% of the Moon is Illuminated
Aug 23
Waning Gibbous
Aug 28
Last Quarter
Sep 5
New
Sep 12
First Quarter
Sep 19
Full

Hourly Weather History & Observations

Time (MDT) Temp. Heat Index Dew Point Humidity Pressure Visibility Wind Dir Wind Speed Gust Speed Precip Events Conditions
12:53 AM 68.0 °F - 64.0 °F 87% 29.98 in 9.0 mi NE 4.6 mph - N/A   Partly Cloudy
1:53 AM 66.9 °F - 64.0 °F 90% 29.96 in 8.0 mi Calm Calm - N/A   Mostly Cloudy
2:53 AM 66.9 °F - 64.0 °F 90% 29.95 in 8.0 mi NW 5.8 mph - N/A   Overcast
3:53 AM 66.9 °F - 64.0 °F 90% 29.93 in 7.0 mi NW 11.5 mph - 0.00 in   Partly Cloudy
4:53 AM 66.0 °F - 63.0 °F 90% 29.94 in 7.0 mi NNE 4.6 mph - N/A   Clear
5:53 AM 64.9 °F - 63.0 °F 93% 29.93 in 5.0 mi NE 4.6 mph - N/A   Clear
6:12 AM 64.4 °F - 62.6 °F 94% 30.07 in 4.0 mi East 9.2 mph - N/A   Scattered Clouds
6:20 AM 64.4 °F - 64.4 °F 100% 30.08 in 4.0 mi East 9.2 mph - N/A   Mostly Cloudy
6:30 AM 64.4 °F - 64.4 °F 100% 30.08 in 1.8 mi East 8.1 mph - N/A   Overcast
6:46 AM 66.2 °F - 64.4 °F 94% 30.08 in 2.5 mi East 6.9 mph - N/A   Overcast
6:53 AM 64.9 °F - 64.0 °F 97% 29.96 in 2.0 mi ESE 6.9 mph - N/A   Overcast
7:24 AM 64.4 °F - 64.4 °F 100% 30.08 in 2.5 mi ESE 4.6 mph - N/A   Scattered Clouds
7:35 AM 66.2 °F - 64.4 °F 94% 30.07 in 3.0 mi SE 4.6 mph - N/A   Clear
7:53 AM 68.0 °F - 63.0 °F 84% 29.96 in 6.0 mi Calm Calm - N/A   Haze
8:53 AM 71.1 °F - 60.1 °F 68% 29.96 in 10.0 mi South 12.7 mph - N/A   Clear
9:53 AM 75.9 °F - 57.9 °F 54% 29.96 in 10.0 mi SSW 6.9 mph - N/A   Clear
10:53 AM 80.1 °F 80.6 °F 57.9 °F 47% 29.94 in 10.0 mi Calm Calm - N/A   Clear
11:53 AM 84.9 °F 84.8 °F 60.1 °F 43% 29.92 in 10.0 mi South 6.9 mph - N/A   Clear
12:53 PM 87.1 °F 86.7 °F 60.1 °F 40% 29.90 in 10.0 mi SSE 9.2 mph - N/A   Clear
1:53 PM 89.1 °F 89.3 °F 62.1 °F 40% 29.88 in 10.0 mi South 13.8 mph 19.6 mph N/A   Clear
2:53 PM 90.0 °F 90.0 °F 61.0 °F 38% 29.86 in 10.0 mi SSE 13.8 mph 24.2 mph N/A   Partly Cloudy
3:53 PM 86.0 °F 86.3 °F 62.1 °F 44% 29.86 in 10.0 mi South 13.8 mph - N/A   Clear
4:53 PM 90.0 °F 89.1 °F 59.0 °F 35% 29.84 in 10.0 mi South 13.8 mph - N/A   Clear
5:53 PM 90.0 °F 88.8 °F 57.9 °F 34% 29.82 in 10.0 mi South 15.0 mph - N/A   Clear
6:53 PM 86.0 °F 85.4 °F 59.0 °F 40% 29.81 in 10.0 mi SSE 10.4 mph - N/A   Clear
7:53 PM 79.0 °F - 57.9 °F 48% 29.83 in 10.0 mi SSE 9.2 mph - N/A   Clear
8:53 PM 77.0 °F - 55.0 °F 47% 29.86 in 10.0 mi South 10.4 mph - N/A   Clear
9:53 PM 75.9 °F - 53.1 °F 45% 29.87 in 10.0 mi South 12.7 mph - N/A   Clear
10:53 PM 72.0 °F - 53.1 °F 51% 29.87 in 10.0 mi South 11.5 mph - N/A   Clear
11:53 PM 71.1 °F - 54.0 °F 55% 29.88 in 10.0 mi South 10.4 mph - N/A   Clear